Location: Agendoh
(31.0664°N, 8.9343°W)
Time: 04:27:47
(UTC+00:00)

Lacrosse 5 - Pass Details

Date: 05 July 2022
Orbit: 714 x 724 km, 57.0° (Epoch: 09 March)

Event Time Altitude Azimuth Distance (km) Brightness Sun altitude
Rises 22:56:15 0° 301° (WNW) 3,133 6.0 -30.7°
Reaches altitude 10° 22:59:31 10° 279° (W) 2,206 4.8 -31.0°
Enters shadow 23:01:17 15° 260° (W) 1,910 4.2 -31.2°
